Home > Time Zones > World Clock > Weather > Iran > Yazd > Past weeks

Flag for Iran Weather past 2 weeks in Yazd, Iran

Now
57 °F

Refreshingly cool.


Feels Like: 57 °F
Forecast: 55 / 81 °F
Wind: 2 mph from South

Location: Yazd Airport

Current Time: Oct 26, 2014 at 2:27:51 AM

Latest Report: Oct 26, 2014 at 1:20 AM


Visibility: N/A

Pressure: 30.07 "Hg

Humidity: 21%

Dew point: 18 °F

Location of YazdLocation

Historic Weather in Yazd — Graph

°F

Yazd temperature yesterday

Maximum temperature yesterday: 82 °F (at 3:30 PM)
Minimum temperature yesterday: 54 °F (at 5:30 AM)
Average temperature yesterday: 69 °F

Past Weeks' High & Low Weather Summary

 TemperatureHumidityPressure
High88 °F (Oct 16, 2:30 PM)63% (Oct 22, 7:30 AM)30.33 "Hg (Oct 22, 7:30 AM)
Low50 °F (Oct 13, 6:00 AM)4% (Oct 24, 2:30 PM)29.89 "Hg (Oct 18, 3:30 PM)
Average70 °F21%30.13 "Hg
* Reported Oct 11 12:30 AM — Oct 26 12:30 AM, Yazd, Weather by CustomWeather, © 2014

Note: Actual official high and low records may vary slightly from our data, if they occured in-between our weather recording intervals... More about our weather records

Advertising

Yazd weather history for previous 24 hours

 ConditionsComfort  
Time TempWeatherWind HumidityBarometerVisibility
12:30 AM
Oct 26
61 °FClear.2 mph17%30.07 "Hg10 mi
11:30 PM
Oct 25
63 °FClear.2 mph22%30.07 "Hg10 mi
10:30 PM64 °FClear.5 mph19%30.04 "Hg10 mi
9:30 PM64 °FClear.2 mph21%30.04 "Hg10 mi
9:00 PM66 °FClear.5 mph18%30.04 "Hg10 mi
8:30 PM66 °FClear.7 mph18%30.04 "Hg10 mi
8:00 PM68 °FClear.5 mph17%30.04 "Hg10 mi
7:30 PM70 °FClear.5 mph16%30.04 "Hg10 mi
7:00 PM72 °FClear.5 mph16%30.04 "Hg10 mi
6:30 PM73 °FClear.2 mph15%30.04 "Hg10 mi
6:00 PM73 °FClear.5 mph15%30.01 "Hg10 mi
5:30 PM75 °FSunny.5 mph14%30.01 "Hg10 mi
5:00 PM79 °FSunny.5 mph12%30.01 "Hg10 mi
4:30 PM81 °FSunny.5 mph9%30.01 "Hg10 mi
3:30 PM82 °FSunny.5 mph10%30.01 "Hg10 mi
2:30 PM81 °FSunny.5 mph12%30.01 "Hg10 mi
1:30 PM81 °FSunny.2 mph13%30.01 "Hg10 mi
12:30 PM79 °FSunny.2 mph15%30.04 "Hg10 mi
11:30 AM77 °FSunny.2 mph15%30.09 "Hg10 mi
11:00 AM75 °FSunny.2 mph16%30.09 "Hg10 mi
10:30 AM73 °FSunny.No wind17%30.12 "Hg10 mi
10:00 AM72 °FSunny.2 mph19%30.12 "Hg10 mi
9:20 AM70 °FSunny.No wind20%30.15 "Hg10 mi
9:00 AM68 °FSunny.2 mph18%30.15 "Hg10 mi
8:30 AM64 °FSunny.2 mph19%30.15 "Hg10 mi
8:00 AM63 °FSunny.5 mph20%30.15 "Hg10 mi
7:30 AM59 °FSunny.5 mph23%30.12 "Hg10 mi
7:00 AM59 °FSunny.5 mph23%30.12 "Hg10 mi
5:30 AM54 °FClear.2 mph22%30.09 "Hg10 mi
4:30 AM59 °FClear.5 mph21%30.09 "Hg10 mi
3:30 AM59 °FClear.5 mph21%30.09 "Hg10 mi
2:30 AM61 °FClear.5 mph20%30.09 "Hg10 mi
Weather by CustomWeather, © 2014

See weather overviewHow to use our weather pages